Talkeetna, AK

9:30 AM AKST on December 12, 2017 (GMT -0900)
Talkeetna

Weather History for PATK - March, 2014

Change the Weather History Date:

Friday, March 28, 2014

  Actual Average Record
Temperature  
Mean Temperature 22 °F -  
Max Temperature 39 °F 38 °F 50 °F (1951)
Min Temperature 6 °F 16 °F -18 °F (1952)
Degree Days  
Heating Degree Days 42    
Moisture  
Dew Point 5 °F    
Average Humidity 47    
Maximum Humidity 77    
Minimum Humidity 14    
Precipitation  
Precipitation 0.00 in - - ()
Sea Level Pressure  
Sea Level Pressure 29.82 in    
Wind  
Wind Speed 2 mph (NW)    
Max Wind Speed 7 mph    
Max Gust Speed -    
Visibility 10 miles    
Events      
Averages and records for this station are not official NWS values.
T = Trace of Precipitation, MM = Missing Value Source: NWS Daily Summary

Daily Weather History Graph

Daily Weather History Graph

Search for Another Location

Airport or City:

Trip Planner

Search our weather history database for the weather conditions in past years. The results will help you decide how hot, cold, wet, or windy it might be!

Date:

Astronomy

Mar. 28, 2014 Rise Set
Actual Time 7:34 AM AKDT 8:37 PM AKDT
Civil Twilight 6:48 AM AKDT 9:23 PM AKDT
Nautical Twilight 5:51 AM AKDT 10:21 PM AKDT
Astronomical Twilight 4:44 AM AKDT 11:29 PM AKDT
Moon 6:48 AM AKDT (3/28) 6:18 PM AKDT (3/28)
Length of Visible Light 14h 35m
Length of Day
13h 03m
Waning Crescent, 5% of the Moon is Illuminated
Mar 28
Waning Crescent
Mar 30
New
Apr 7
First Quarter
Apr 14
Full
Apr 21
Last Quarter

Hourly Weather History & Observations

Time (AKDT) Temp. Windchill Dew Point Humidity Pressure Visibility Wind Dir Wind Speed Gust Speed Precip Events Conditions
12:53 AM 17.1 °F - 9.0 °F 71% 29.85 in 10.0 mi Calm Calm - N/A   Clear
1:53 AM 15.1 °F - 5.0 °F 64% 29.86 in 10.0 mi Calm Calm - N/A   Clear
2:53 AM 12.9 °F - 5.0 °F 71% 29.86 in 10.0 mi Calm Calm - N/A   Clear
3:53 AM 10.9 °F - 3.9 °F 73% 29.86 in 10.0 mi Calm Calm - N/A   Clear
4:53 AM 9.0 °F - 1.9 °F 73% 29.87 in 10.0 mi Calm Calm - N/A   Clear
5:53 AM 8.1 °F 1.4 °F 1.9 °F 76% 29.88 in 10.0 mi NE 3.5 mph - N/A   Clear
6:53 AM 7.0 °F - 1.0 °F 77% 29.88 in 10.0 mi Calm Calm - N/A   Clear
7:53 AM 8.1 °F - 1.0 °F 73% 29.87 in 10.0 mi Calm Calm - N/A   Clear
8:53 AM 18.0 °F 11.1 °F 1.9 °F 50% 29.87 in 10.0 mi NNW 4.6 mph - N/A   Clear
9:53 AM 21.9 °F 17.2 °F 1.9 °F 42% 29.87 in 10.0 mi NNW 3.5 mph - N/A   Clear
10:53 AM 26.1 °F 21.9 °F 3.0 °F 37% 29.86 in 10.0 mi NNW 3.5 mph - N/A   Clear
11:53 AM 27.0 °F 19.5 °F 5.0 °F 39% 29.85 in 10.0 mi WNW 6.9 mph - N/A   Clear
12:53 PM 30.0 °F 24.1 °F 6.1 °F 36% 29.84 in 10.0 mi West 5.8 mph - N/A   Clear
1:53 PM 34.0 °F 28.8 °F 6.1 °F 31% 29.83 in 10.0 mi WNW 5.8 mph - N/A   Clear
2:53 PM 36.0 °F 33.3 °F 6.1 °F 29% 29.81 in 10.0 mi West 3.5 mph - N/A   Clear
3:53 PM 37.0 °F 33.3 °F 5.0 °F 26% 29.80 in 10.0 mi West 4.6 mph - N/A   Clear
4:53 PM 37.9 °F 35.5 °F 5.0 °F 25% 29.79 in 10.0 mi West 3.5 mph - N/A   Clear
5:53 PM 37.9 °F 34.4 °F 5.0 °F 25% 29.77 in 10.0 mi WNW 4.6 mph - N/A   Clear
6:53 PM 39.0 °F 36.8 °F 5.0 °F 24% 29.75 in 10.0 mi Variable 3.5 mph - N/A   Clear
7:53 PM 37.0 °F - 3.9 °F 25% 29.75 in 10.0 mi Calm Calm - N/A   Clear
8:53 PM 28.9 °F - 10.0 °F 45% 29.75 in 10.0 mi Calm Calm - N/A   Clear
9:53 PM 23.0 °F - 9.0 °F 55% 29.75 in 10.0 mi Calm Calm - N/A   Clear
10:53 PM 21.0 °F - 9.0 °F 60% 29.76 in 10.0 mi Calm Calm - N/A   Clear
11:53 PM 19.0 °F - 7.0 °F 59% 29.76 in 10.0 mi Calm Calm - N/A   Clear